TimePST,TemperatureF,Dew PointF,Humidity,Sea Level PressureIn,VisibilityMPH,Wind Direction,Wind SpeedMPH,Gust SpeedMPH,PrecipitationIn,Events,Conditions,WindDirDegrees,DateUTC
12:56 AM,44.1,30.0,58,29.87,10.0,SE,9.2,-,N/A,,Mostly Cloudy,140,2012-11-21 08:56:00
1:56 AM,48.0,32.0,54,29.87,10.0,South,11.5,-,N/A,,Mostly Cloudy,190,2012-11-21 09:56:00
2:56 AM,52.0,30.0,43,29.86,10.0,South,11.5,-,N/A,,Overcast,190,2012-11-21 10:56:00
3:56 AM,52.0,28.9,41,29.85,10.0,South,16.1,-,N/A,,Overcast,190,2012-11-21 11:56:00
4:56 AM,52.0,28.9,41,29.85,10.0,South,9.2,-,N/A,,Overcast,170,2012-11-21 12:56:00
5:56 AM,50.0,28.0,43,29.86,10.0,SSE,8.1,-,N/A,,Scattered Clouds,150,2012-11-21 13:56:00
6:13 AM,50.0,28.4,43,29.94,10.0,SE,9.2,-,N/A,,Mostly Cloudy,140,2012-11-21 14:13:00
6:56 AM,53.1,27.0,37,29.87,10.0,South,13.8,-,N/A,,Overcast,180,2012-11-21 14:56:00
7:56 AM,54.0,28.9,38,29.88,10.0,SE,11.5,-,N/A,,Mostly Cloudy,140,2012-11-21 15:56:00
8:56 AM,57.0,28.9,34,29.90,10.0,SSE,11.5,-,N/A,,Mostly Cloudy,160,2012-11-21 16:56:00
9:56 AM,59.0,30.0,33,29.91,10.0,SSE,4.6,-,N/A,,Mostly Cloudy,160,2012-11-21 17:56:00
10:56 AM,61.0,33.1,35,29.92,10.0,Calm,Calm,-,N/A,,Mostly Cloudy,0,2012-11-21 18:56:00
11:56 AM,63.0,34.0,34,29.89,10.0,ENE,9.2,-,N/A,,Mostly Cloudy,60,2012-11-21 19:56:00
12:56 PM,66.0,26.1,22,29.90,10.0,SW,20.7,28.8,N/A,,Mostly Cloudy,230,2012-11-21 20:56:00
1:56 PM,64.0,25.0,23,29.89,10.0,WSW,17.3,26.5,N/A,,Mostly Cloudy,250,2012-11-21 21:56:00
2:56 PM,63.0,28.9,28,29.91,10.0,WNW,17.3,-,N/A,,Overcast,290,2012-11-21 22:56:00
3:56 PM,60.1,30.0,32,29.94,10.0,NNW,10.4,-,N/A,,Overcast,340,2012-11-21 23:56:00
4:56 PM,55.9,26.1,32,29.96,10.0,NW,10.4,18.4,N/A,,Overcast,310,2012-11-22 00:56:00
5:56 PM,53.1,23.0,31,29.99,10.0,NW,8.1,-,N/A,,Scattered Clouds,320,2012-11-22 01:56:00
6:56 PM,48.9,27.0,43,30.02,10.0,NNE,6.9,-,N/A,,Scattered Clouds,30,2012-11-22 02:56:00
7:56 PM,48.0,28.0,46,30.06,10.0,NW,13.8,-,N/A,,Scattered Clouds,320,2012-11-22 03:56:00
8:56 PM,43.0,27.0,53,30.08,10.0,NW,5.8,-,N/A,,Scattered Clouds,320,2012-11-22 04:56:00
9:56 PM,41.0,27.0,57,30.12,10.0,North,5.8,-,N/A,,Scattered Clouds,10,2012-11-22 05:56:00
11:56 PM,36.0,26.1,67,30.13,10.0,NW,4.6,-,N/A,,Clear,320,2012-11-22 07:56:00